THORAD AGENA D DEB, 4688

Orbit data source: Space-Track

THORAD AGENA D DEB, 4688 is space debris in SSO originally from a launch on Wed, 08 Apr 1970 UTC launched from the Air Force Western Test Range (AFWTR). Debris objects in space refer to the collection of defunct objects orbiting the Earth. Examples of debris include non-operational satellites, rocket bodies, and fragments generated from explosions, collisions, or faulty payload assembly.

Loading next visibility...
Identifier
4688, 1970-025BM
Orbit
SSO
Country
Flag of USUS
Related business
Manufacturer
Unknown
Mission
Spacecraft
Bus & Motor
Unknown
Mass
Unknown
Launch date (UTC)
1970-04-08 (56 years ago)
Launch vehicle
Unknown
Launch site
Air Force Western Test Range (AFWTR)
Object type
Payload
Rocket body
Debris
Shape & HBR
Unknown shape, 0.1 m
Radar Cross Section
Small (<0.1 m²)

Expand to show TLE details & history
Last TLE update: 17 hours ago

TLE from 17 hours ago
0 THORAD AGENA D DEB
1 04688U 70025BM  25355.21216619  .00000126  00000-0  25496-3 0  9996
2 04688 100.0468  90.7632 0020113 349.7471  39.9067 13.53658320743651
Epoch: 2025-12-21T05:05Z
TLE epoch observation values (Epoch: 2025-12-21T05:05:31.158Z)
Latitude
29.34825°
Longitude
-81.33215°
Altitude
1,050.897 km
Speed
7.335 km/s
True Right ascension
05h 40m 18s
True Declination
29° 12' 26"
Sunlit
Object was in full shadow at epoch
Visualization orbit readout
Latitude
Unknown
Longitude
Unknown
Altitude
Unknown
Speed
Unknown
Apparent Right ascension
Unknown
Apparent Declination
Unknown
Sunlit
N/A
Visualization observer readout
Local Sidereal Time
21:37:07
Azimuth
Unknown
Elevation
Unknown
Doppler factor
Unknown
Orbital elements
Apogee altitude
1,071.096 km
Perigee altitude
1,041.191 km
Semi-major axis
7,434.281 km
Eccentricity
0.00201
Inclination
100.0468°
RAAN
90.7632°
Arg. of periapsis
349.7471°
True anomaly
40.05485°
Mean anomaly
39.9067°
Eccentric anomaly
39.98074°
Mean motion
3.38598 °/min
Orbital period
106.32 mins
BSTAR
0.00025496
Loading maneuver chart data...
Computing Atmospheric mass density...
Loading historical data...
Loading historical data...
Loading historical data...
Loading historical data...
Loading historical data...
Loading historical data...
Loading historical data...

Documentation

Showing up to 5 results
|